Main page
METAR-TAF:

METAR-TAF

Airports :

RAF Boulmer

Boulmer, England

latitude: 55-25-19N, longitude: 1-36-12W, elevation: 24 m

Current weather observation

The report was made 34 minutes ago, at 14:50 UTC
Wind 13 kt from the South/Southwest
Temperature 24°C
Humidity 61%
Pressure 1013 hPa
Visibility 10 km or more

METAR: EGQM 231450Z AUTO 21013KT 9999 OVC050/// 24/16 Q1013

Time: 16:24 (15:24 UTC)


TAF: missing

Weather observations and forecasts of more than 4000 airports (METAR and TAF reports).

The available stations are represented by yellow and red dots on the map.

Hover mouse over dot to see the name of the station.

Then click to see weather observations and forecasts.

To change the map : click on the green buttons with a black cross to zoom in, on the green button with a dash to zoom out, or on the green arrows for adjacent maps.


METAR-TAF: